Phuket, Thailand

3:38 PM +07 on May 26, 2018 (GMT +0700)
Phuket International

Weather History for VTSP - January, 2013

Change the Weather History Date:

Sunday, January 20, 2013

  Actual Average Record
Temperature  
Mean Temperature 82 °F -  
Max Temperature 90 °F 90 °F 107 °F (1998)
Min Temperature 74 °F 75 °F 69 °F (2018)
Cooling Degree Days 17    
Growing Degree Days 32 (Base 50)    
Moisture  
Dew Point 70 °F    
Average Humidity 65    
Maximum Humidity 83    
Minimum Humidity 46    
Precipitation  
Precipitation 0.00 in 0.04 in - ()
Sea Level Pressure  
Sea Level Pressure 29.88 in    
Wind  
Wind Speed 8 mph ()    
Max Wind Speed 15 mph    
Max Gust Speed -    
Visibility 5.1 miles    
Events      
Averages and records for this station are not official NWS values.
T = Trace of Precipitation, MM = Missing Value Source: Averaged Metar Reports

Daily Weather History Graph

Daily Weather History Graph

Search for Another Location

Airport or City:

Astronomy

Jan. 20, 2013 Rise Set
Actual Time 6:46 AM +07 6:29 PM +07
Civil Twilight 6:23 AM +07 6:51 PM +07
Nautical Twilight 5:58 AM +07 7:17 PM +07
Astronomical Twilight 5:32 AM +07 7:42 PM +07
Moon 1:04 PM +07 (1/20) 1:00 AM +07 (1/20)
Length of Visible Light 12h 27m
Length of Day
11h 43m
First Quarter, 61% of the Moon is Illuminated
Jan 20
First Quarter
Jan 27
Full
Feb 3
Last Quarter
Feb 10
New
Feb 18
First Quarter

Hourly Weather History & Observations

Time (+07) Temp. Heat Index Dew Point Humidity Pressure Visibility Wind Dir Wind Speed Gust Speed Precip Events Conditions
12:00 AM 80.6 °F 83.9 °F 69.8 °F 70% 29.92 in 6.2 mi East 11.5 mph - N/A   Mostly Cloudy
12:30 AM 80.6 °F 83.9 °F 69.8 °F 70% 29.92 in 6.2 mi East 13.8 mph - N/A   Mostly Cloudy
1:00 AM 81 °F - 73 °F 70% 29.88 in 6 mi ENE 5.8 mph - -   Scattered Clouds
1:30 AM 78.8 °F - 71.6 °F 78% 29.92 in 6.2 mi ENE 12.7 mph - N/A   Mostly Cloudy
2:00 AM 78.8 °F - 71.6 °F 78% 29.89 in 6.2 mi ENE 8.1 mph - N/A   Mostly Cloudy
2:30 AM 78.8 °F - 71.6 °F 78% 29.89 in 6.2 mi ENE 8.1 mph - N/A   Mostly Cloudy
3:00 AM 78.8 °F - 71.6 °F 78% 29.86 in 6.2 mi East 9.2 mph - N/A   Mostly Cloudy
3:30 AM 78.8 °F - 69.8 °F 74% 29.86 in 6.2 mi East 9.2 mph - N/A   Mostly Cloudy
4:00 AM 77.0 °F - 69.8 °F 78% 29.86 in 6.2 mi ENE 9.2 mph - N/A   Mostly Cloudy
4:30 AM 77.0 °F - 69.8 °F 78% 29.86 in 6.2 mi ENE 5.8 mph - N/A   Mostly Cloudy
5:00 AM 78.8 °F - 69.8 °F 74% 29.86 in 6.2 mi East 9.2 mph - N/A   Mostly Cloudy
5:30 AM 78.8 °F - 69.8 °F 74% 29.86 in 6.2 mi East 9.2 mph - N/A   Mostly Cloudy
6:00 AM 77.0 °F - 69.8 °F 78% 29.89 in 6.2 mi ENE 9.2 mph - N/A   Mostly Cloudy
6:30 AM 77.0 °F - 69.8 °F 78% 29.89 in 6.2 mi NE 5.8 mph - N/A   Mostly Cloudy
7:00 AM 77 °F - 72 °F 79% 29.87 in 6 mi NE 5.8 mph - -   Scattered Clouds
7:00 AM 77.0 °F - 69.8 °F 78% 29.89 in 4.3 mi NE 6.9 mph - N/A   Mostly Cloudy
7:30 AM 77.0 °F - 71.6 °F 83% 29.89 in 4.3 mi ENE 6.9 mph - N/A   Mostly Cloudy
8:00 AM 80.6 °F 83.9 °F 69.8 °F 70% 29.92 in 5.0 mi ENE 9.2 mph - N/A   Mostly Cloudy
8:30 AM 80.6 °F 83.9 °F 69.8 °F 70% 29.92 in 5.0 mi ENE 6.9 mph - N/A   Mostly Cloudy
9:00 AM 80.6 °F 83.9 °F 69.8 °F 70% 29.92 in 4.3 mi ENE 8.1 mph - N/A   Mostly Cloudy
9:30 AM 82.4 °F 86.3 °F 69.8 °F 66% 29.95 in 4.3 mi ENE 5.8 mph - N/A   Mostly Cloudy
10:00 AM 84.2 °F 88.4 °F 69.8 °F 62% 29.95 in 4.3 mi East 13.8 mph - N/A   Scattered Clouds
10:30 AM 84.2 °F 88.4 °F 69.8 °F 62% 29.92 in 4.3 mi East 12.7 mph - N/A   Scattered Clouds
11:00 AM 86.0 °F 90.4 °F 69.8 °F 58% 29.92 in 4.3 mi East 15.0 mph - N/A   Scattered Clouds
11:30 AM 84.2 °F 87.3 °F 68.0 °F 58% 29.92 in 4.3 mi ENE 10.4 mph - N/A   Scattered Clouds
12:00 PM 87.8 °F 90.4 °F 66.2 °F 49% 29.92 in 4.3 mi East 12.7 mph - N/A   Scattered Clouds
12:30 PM 87.8 °F 90.4 °F 66.2 °F 49% 29.89 in 4.3 mi East 13.8 mph - N/A   Scattered Clouds
1:00 PM 87 °F - 70 °F 47% 29.88 in 4 mi East 11.5 mph - -   Haze
1:00 PM 87.8 °F 90.4 °F 66.2 °F 49% 29.89 in 4.3 mi East 13.8 mph - N/A   Scattered Clouds
1:30 PM 89.6 °F 92.2 °F 66.2 °F 46% 29.89 in 4.3 mi East 11.5 mph - N/A   Mostly Cloudy
2:00 PM 89.6 °F 92.2 °F 66.2 °F 46% 29.86 in 4.3 mi East 13.8 mph - N/A   Mostly Cloudy
2:30 PM 89.6 °F 92.2 °F 66.2 °F 46% 29.86 in 4.3 mi East 15.0 mph - N/A   Scattered Clouds
3:00 PM 89.6 °F 93.4 °F 68.0 °F 49% 29.83 in 4.3 mi East 12.7 mph - N/A   Scattered Clouds
3:30 PM 89.6 °F 93.4 °F 68.0 °F 49% 29.83 in 4.3 mi East 11.5 mph - N/A   Scattered Clouds
4:00 PM 89.6 °F 93.4 °F 68.0 °F 49% 29.80 in 5.0 mi ENE 9.2 mph - N/A   Scattered Clouds
4:30 PM 89.6 °F 93.4 °F 68.0 °F 49% 29.80 in 5.0 mi East 13.8 mph - N/A   Scattered Clouds
5:00 PM 89.6 °F 93.4 °F 68.0 °F 49% 29.80 in 5.0 mi East 11.5 mph - N/A   Mostly Cloudy
5:30 PM 87.8 °F 91.4 °F 68.0 °F 52% 29.83 in 5.0 mi East 5.8 mph - N/A   Scattered Clouds
6:00 PM 87.8 °F 91.4 °F 68.0 °F 52% 29.83 in 5.0 mi ENE 6.9 mph - N/A   Scattered Clouds
6:30 PM 86.0 °F 90.4 °F 69.8 °F 58% 29.83 in 4.3 mi ENE 3.5 mph - N/A   Mostly Cloudy
7:00 PM 87 °F - 75 °F 59% 29.82 in 5 mi ENE 3.5 mph - -   Mist
7:00 PM 84.2 °F 88.4 °F 69.8 °F 62% 29.83 in 4.3 mi NNE 3.5 mph - N/A   Mostly Cloudy
7:30 PM 84.2 °F 89.6 °F 71.6 °F 66% 29.86 in 5.0 mi North 2.3 mph - N/A   Mostly Cloudy
8:00 PM 82.4 °F 87.2 °F 71.6 °F 70% 29.89 in 5.0 mi Variable 3.5 mph - N/A   Mostly Cloudy
8:30 PM 82.4 °F 87.2 °F 71.6 °F 70% 29.89 in 5.0 mi Variable 2.3 mph - N/A   Mostly Cloudy
9:00 PM 80.6 °F 85.4 °F 73.4 °F 79% 29.92 in 5.0 mi Variable 1.2 mph - N/A   Mostly Cloudy
9:30 PM 80.6 °F 84.6 °F 71.6 °F 74% 29.92 in 5.0 mi East 3.5 mph - N/A   Mostly Cloudy
10:00 PM 82.4 °F 86.3 °F 69.8 °F 66% 29.92 in 5.0 mi ESE 5.8 mph - N/A   Mostly Cloudy
10:30 PM 80.6 °F 84.6 °F 71.6 °F 74% 29.92 in 5.0 mi Variable 1.2 mph - N/A   Mostly Cloudy
11:00 PM 80.6 °F 83.9 °F 69.8 °F 70% 29.92 in 5.0 mi East 4.6 mph - N/A   Mostly Cloudy
11:30 PM 80.6 °F 83.9 °F 69.8 °F 70% 29.92 in 5.0 mi NE 2.3 mph - N/A   Mostly Cloudy